Location: Plainartige
(45.6866°N, 1.7993°E)
Time: 04:45:38
(UTC+00:00)

Vanguard 1 - Pass Details

Date: 27 May 2022
Orbit: 649 x 3833 km, 34.2° (Epoch: 06 July)

Event Time Altitude Azimuth Distance (km) Brightness Sun altitude
Exits shadow 22:58:32 25° 144° (SE) 3,836 12.5 -21.9°
Maximum altitude 23:00:04 26° 135° (SE) 3,958 12.6 -21.9°
Drops below altitude 10° 23:13:22 10° 89° (E) 6,255 14.1 -22.4°
Sets 23:20:14 0° 79° (E) 7,669 14.7 -22.6°
